Location: L�Ave Maria
(50.7161°N, 1.5911°E)
Time: 23:35:31
(UTC+00:00)

Cosmos 1680 Rocket - Pass Details

Date: 10 July 2020
Orbit: 760 x 781 km, 74.1° (Epoch: 03 August)

Event Time Altitude Azimuth Distance (km) Brightness Sun altitude
Exits shadow 21:54:07 - 201° (SSW) 3,013 6.2 -12.2°
Reaches altitude 10° 21:55:52 10° 201° (SSW) 2,331 5.6 -12.3°
Maximum altitude 22:01:11 88° 113° (ESE) 790 3.5 -12.7°
Drops below altitude 10° 22:06:33 10° 25° (NNE) 2,346 6.6 -13.1°
Sets 22:08:56 0° 25° (NNE) 3,277 7.4 -13.3°
